Simultaneous Nadir Overpasses (SNOs) Predictions

Prediction of SNOs between GOES-16 and TERRA Satellite Orbit:

Table of predicted SNOs for the next 14.0 days since TLE Epoch: 10/31/2020
Index Date Time (GOES-16) GOES-16 Lat,Lon TERRA Lat,Lon Distance(km) Time Diff (sec)
1 10/31/2020 15:36:01 -0.04, -75.18 0.29, -76.73 176.84 80
2 11/02/2020 15:26:30 -0.03, -75.18 -0.36, -73.78 159.49 80
3 11/03/2020 03:47:53 0.03, -75.16 -0.76, -78.97 433.57 80
4 11/04/2020 15:14:18 -0.03, -75.18 -0.94, -70.82 496.03 80
5 11/05/2020 03:35:42 0.03, -75.16 -0.17, -76.01 96.99 80
6 11/07/2020 03:20:51 0.02, -75.17 0.48, -73.06 239.95 80
7 11/07/2020 15:42:05 -0.02, -75.19 0.64, -78.21 343.44 80
8 11/09/2020 15:29:54 -0.01, -75.21 -0.01, -75.26 6.08 80
9 11/11/2020 15:20:23 -0.01, -75.22 -0.62, -72.30 332.16 80
10 11/12/2020 03:41:46 0.01, -75.21 -0.49, -77.49 260.17 80
11 11/14/2020 03:26:55 0.01, -75.23 0.18, -74.54 78.53 80
